Погода в Верхоянске

Погода в Верхоянске : погода сейчас, прогноз погоды и архив. Всё, что Вы хотите узнать о погоде в Верхоянске!

Хотите узнать прогноз погоды в Верхоянске? Тогда Вам сюда: Погода в Верхоянске

Поиск расширенной информации на нашем сайте:

Полезная информация: Актуальная информация спортивный уголок трансформер на сайте.

Другие новости

Новости СМИ2

Главная страница сайта

Новости сайта

02.10.2013

Напоминаем, что на нашем новом сайте вы можете получить высокодетализированные прогнозы погоды по пунктам России, СНГ и мира (включающие важные для авиации метеовеличины, такие как направление и скорость ветра, видимость, явления погоды, количество и форма облачности, нижняя и верхняя граница облачности), а также ознакомиться с разнообразными материалами по авиационной метеорологии и подборкой полезных ссылок на эту тему.

Сайт Метеоцентр.Азия посвящён разработке технологий оптимизации авиаметеорологического обслуживания, включая проектирование и перспективное создание нескольких автоматизированных авиаметеорологических систем:
- система выпуска высокодетальных прогностических карт явлений погоды для нижнего воздушного пространства по России и ближнему зарубежью;
- система верификации прогнозов TAF (выпускаемых синоптиками официальных АМСГ РФ и ближнего зарубежья) и AUTOTAF (выпускаемых сайтом Метеоцентр.Азия) - выявление ошибок, онлайн-сопоставление с фактической погодой METAR, автоматическое внесение коррективов в прогнозы при резком отклонении фактической погоды от прогноза, подсчёт оправдываемости прогнозов по элементам и в целом;
- система обработки, анализа и отображения авиаметеорологической информации для применения провайдерами метеорологической информации.

Рекомендуем: http://porfirit74.ru/ Щебень 70-120 гранитный Щебень.

Погода в Верхоянске - сегодня

Время (UTC), дата Ветер
(°,м/с) 
Видим.   Явления Облачность Т
(°С)
Тd
(°С)
f(%) Тe
(°С)
Pmin
(гПа)
dP
(гПа)
Po
(мм)
O2
(г/м3)
Тmin Tmax R s Состояние
почвы
18 20.02.17 тихо ()   20000 м    ясно 
-46.6 -49 76 -47  1025.1  0.2  753  368           
21 20.02.17 тихо ()   20000 м    ясно 
-47.3 -49 83 -47  1026.2  1.1  754  370  -47.5      33  равномерный
сухой снег
100% 
00 21.02.17 тихо ()   20000 м  дым  4/0 верхняя 
[Ci fib]
-47.8 -50 78 -48  1026.7  0.4  754  371  -48.1         
03 21.02.17 тихо ()   20000 м    8/0 верхняя 
[Cs]
-42.8 -45 79 -43  1026.4  0.2  754  363           
06 21.02.17 тихо ()   20000 м    4/0 верхняя 
[Ci fib]
-38.4 -40.8 78 -38  1025.5  -0.5  754  356           
09 21.02.17 тихо ()   20000 м    3/0 верхняя 
[Ci fib]
-40.4 -42.8 78 -40  1026.6  0.9  755  359    -38.4       
12 21.02.17 тихо ()   20000 м    ясно 
-43.3 -45.7 77 -43  1027.1  0.3  755  364           
15 21.02.17 тихо ()   20000 м    ясно 
-44.6 -46.4 82 -45  1027.3  0.1  755  366           
18 21.02.17 тихо ()   20000 м    ясно 
-45.3 -47.2 81 -45  1027.4  755  367           
21 21.02.17 тихо ()   20000 м    ясно 
-45.9 -48.1 78 -46  1027.9  0.4  755  368  -46.2      33  равномерный
сухой снег
100% 
00 22.02.17 тихо ()   20000 м    3/0 средняя 
[Ac trans]
-43.6 -45.7 80 -44  1028  0.3  755  364           
03 22.02.17 тихо ()   20000 м    8/0 средняя, верхняя 
[Ac trans|Ci fib]
-39.1 -41.2 80 -39  1027  -0.6  755  357           
06 22.02.17 тихо ()   20000 м    10/0 средняя, верхняя 
[Ac trans|Cs]
-36 -38.4 79 -36  1025.5  -1.2  754  352           
09 22.02.17 тихо ()   20000 м    9/0 средняя, верхняя 
[Ac trans|Cs]
-36 -38.4 79 -36  1024.9  -0.6  754  352    -35       
12 22.02.17 040 (СВ) 20000 м    9/0 средняя, верхняя 
[Ac trans|Cs]
-36.5 -38.7 80 -38  1024.5  -0.5  753  352           
15 22.02.17 060 (СВ) 20000 м    10/0 средняя, верхняя 
[Ac trans|Cs]
-35.9 -38.1 80 -37  1023.4  -1  753  351           
18 22.02.17 050 (СВ) 20000 м    10/0 средняя, верхняя 
[Ac trans|Cs]
-36.5 -38.7 80 -38  1023.1  -0.4  752  352           
21 22.02.17 030 (СВ) 20000 м    3/0 верхняя 
[Ci fib]
-38.5 -40.7 80 -40  1023.5  0.2  752  355  -38.5      33  равномерный
сухой снег
100% 
00 23.02.17 тихо ()   20000 м    3/0 верхняя 
[Ci fib]
-40.5 -42.7 79 -41  1024.1  0.5  753  358  -41.6         
03 23.02.17 040 (СВ) 20000 м    ясно 
-35 -37.4 79 -36  1022.8  -0.8  752  350           
06 23.02.17 тихо ()   20000 м    ясно 
-31.5 -34.5 75 -32  1022.2  -0.3  752  344           
09 23.02.17 030 (СВ) 20000 м    ясно 
-35.1 -37.4 79 -36  1022.6  0.1  752  350    -29.6       
12 23.02.17 тихо ()   20000 м    ясно 
-38 -40.3 79 -38  1022.9  752  354           
15 23.02.17 тихо ()   20000 м    ясно 
-40.3 -42.7 78 -40  1022.6  -0.4  752  357           
18 23.02.17 тихо ()   20000 м    ясно 
-41.2 -43.2 81 -41  1022.7  752  359           
Время (UTC), дата Ветер
(°,м/с) 
Видим.   Явления Облачность Т
(°С)
Тd
(°С)
f(%) Тe
(°С)
Pmin
(гПа)
dP
(гПа)
Po
(мм)
O2
(г/м3)
Тmin Tmax R s Состояние
почвы

Для получения пояснительной информации подведите курсор к названию столбца.

ПОГОДА в Верхоянске - архив

Всё, что Вы хотите узнать о погоде в Верхоянске - удобно и подробно!

Выберите нужную дату (начиная с 1 января 2015* года) и нажмите кнопку "Найти".
Будут отображены архивные сводки погоды по пункту Верхоянск, начиная с указанной даты.


Отображать данные в формате CSV (для использования в таблицах Excel)


Внимание! Наш архив погоды предназначен исключительно для личного некоммерческого использования в познавательных целях. Если Вам необходимы официальные справки о состоянии погоды (для производственных, юридических, коммерческих и т.п. целей), обращайтесь в органы Росгидромета.

*Примечание: данная дата относится к архиву по метеостанциям СССР (Россия, СНГ, Балтия).
Архив по метеостанциям Зарубежной Европы и Азии (кроме Китая) хранится 10 дней, по другим регионам земного шара (Китай, Африка, Америка, Австралия, Океания) - 1 день.

Верхоянск - район местоположения метеостанции


Название, широта, долгота, высота метеостанции:
Верхоянск 67.6°ш. 133.4°д. 137 м над ур. моря [Российская Федерация]

Дополнительная информация

В oтличие oт бoльшинства пoгoдных сайтoв мы публикуем пoдрoбную метеoинфoрмацию в детальнoм прoфессиoнальнoм фoрмате.

Характеристики температуры и влажнoсти вoздуха измеряются на высoте 2 м в тени вдали oт зданий и деревьев.
Скoрoсть ветра измеряется на высoте 10 м (на урoвне рoста челoвека скoрoсть ветра ниже в 1.5-2 раза). Если метеoстанция нахoдится в гoрoде или в лесу, тo скoрoсть ветра занижена на 2-4 м/с пo сравнению с oткрытым местoм. Скoрoсть ветра над акватoриями крупных рек и oзёр, а также на вершинах хoлмoв на 2-5 м/с выше, чем в oбычных услoвиях.
Атмoсфернoе давление в разных тoчках местнoсти мoжет значительнo oтличаться oт давления на метеoстанции, в зависимoсти oт услoвий рельефа (при пoдъёме на 10 м давление пoнижается примернo на 1 мм рт.ст.).